owner,sensor,date,latitude,longitude,vertical_datum,sea_water_practical_salinity,qcFlag 
WAVCIS,ioos:station:WAVCIS:CSI16:2,2009-06-01T00:00:00Z,29.4012,-89.0355,1.0,25.494,11111222 
WAVCIS,ioos:station:WAVCIS:CSI16:2,2009-06-01T00:15:00Z,29.4012,-89.0355,1.0,25.98,11111222 
WAVCIS,ioos:station:WAVCIS:CSI16:2,2009-06-01T00:30:00Z,29.4012,-89.0355,1.0,26.163,11111222 
WAVCIS,ioos:station:WAVCIS:CSI16:2,2009-06-01T00:45:00Z,29.4012,-89.0355,1.0,26.249,11111222 
WAVCIS,ioos:station:WAVCIS:CSI16:2,2009-06-01T01:00:00Z,29.4012,-89.0355,1.0,26.401,11111222 
WAVCIS,ioos:station:WAVCIS:CSI16:2,2009-06-01T01:15:00Z,29.4012,-89.0355,1.0,26.484,11111222 
WAVCIS,ioos:station:WAVCIS:CSI16:2,2009-06-01T01:30:00Z,29.4012,-89.0355,1.0,26.683,11111222 
WAVCIS,ioos:station:WAVCIS:CSI16:2,2009-06-01T01:45:00Z,29.4012,-89.0355,1.0,26.626,11111222 
WAVCIS,ioos:station:WAVCIS:CSI16:2,2009-06-01T02:00:00Z,29.4012,-89.0355,1.0,26.448,11111222 
WAVCIS,ioos:station:WAVCIS:CSI16:2,2009-06-01T02:15:00Z,29.4012,-89.0355,1.0,26.699,11111222 
WAVCIS,ioos:station:WAVCIS:CSI16:2,2009-06-01T02:30:00Z,29.4012,-89.0355,1.0,26.532,11111222 
WAVCIS,ioos:station:WAVCIS:CSI16:2,2009-06-01T02:45:00Z,29.4012,-89.0355,1.0,26.574,11111222 
WAVCIS,ioos:station:WAVCIS:CSI16:2,2009-06-01T03:00:00Z,29.4012,-89.0355,1.0,26.53,11111222 
WAVCIS,ioos:station:WAVCIS:CSI16:2,2009-06-01T03:15:00Z,29.4012,-89.0355,1.0,26.519,11111222 
WAVCIS,ioos:station:WAVCIS:CSI16:2,2009-06-01T03:30:00Z,29.4012,-89.0355,1.0,27.472,11111222 
WAVCIS,ioos:station:WAVCIS:CSI16:2,2009-06-01T03:45:00Z,29.4012,-89.0355,1.0,27.372,11111222 
WAVCIS,ioos:station:WAVCIS:CSI16:2,2009-06-01T04:00:00Z,29.4012,-89.0355,1.0,27.945,11111222 
WAVCIS,ioos:station:WAVCIS:CSI16:2,2009-06-01T04:15:00Z,29.4012,-89.0355,1.0,27.522,11111222 
WAVCIS,ioos:station:WAVCIS:CSI16:2,2009-06-01T04:30:00Z,29.4012,-89.0355,1.0,27.302,11111222 
WAVCIS,ioos:station:WAVCIS:CSI16:2,2009-06-01T04:45:00Z,29.4012,-89.0355,1.0,26.846,11111222 
WAVCIS,ioos:station:WAVCIS:CSI16:2,2009-06-01T05:00:00Z,29.4012,-89.0355,1.0,27.117,11111222 
WAVCIS,ioos:station:WAVCIS:CSI16:2,2009-06-01T05:15:00Z,29.4012,-89.0355,1.0,27.571,11111222 
WAVCIS,ioos:station:WAVCIS:CSI16:2,2009-06-01T05:30:00Z,29.4012,-89.0355,1.0,28.254,11111222 
WAVCIS,ioos:station:WAVCIS:CSI16:2,2009-06-01T05:45:00Z,29.4012,-89.0355,1.0,29.844,11111222 
WAVCIS,ioos:station:WAVCIS:CSI16:2,2009-06-01T06:00:00Z,29.4012,-89.0355,1.0,30.392,11111222 
WAVCIS,ioos:station:WAVCIS:CSI16:2,2009-06-01T06:15:00Z,29.4012,-89.0355,1.0,31.313,11111222 
WAVCIS,ioos:station:WAVCIS:CSI16:2,2009-06-01T06:30:00Z,29.4012,-89.0355,1.0,31.655,11111222 
WAVCIS,ioos:station:WAVCIS:CSI16:2,2009-06-01T06:45:00Z,29.4012,-89.0355,1.0,31.621,11111222 
WAVCIS,ioos:station:WAVCIS:CSI16:2,2009-06-01T07:00:00Z,29.4012,-89.0355,1.0,31.697,11111222 
WAVCIS,ioos:station:WAVCIS:CSI16:2,2009-06-01T07:15:00Z,29.4012,-89.0355,1.0,31.76,11111222 
WAVCIS,ioos:station:WAVCIS:CSI16:2,2009-06-01T07:30:00Z,29.4012,-89.0355,1.0,31.695,11111222 
WAVCIS,ioos:station:WAVCIS:CSI16:2,2009-06-01T07:45:00Z,29.4012,-89.0355,1.0,31.59,11111222 
WAVCIS,ioos:station:WAVCIS:CSI16:2,2009-06-01T08:00:00Z,29.4012,-89.0355,1.0,31.985,11111222 
WAVCIS,ioos:station:WAVCIS:CSI16:2,2009-06-01T08:15:00Z,29.4012,-89.0355,1.0,31.407,11111222 
WAVCIS,ioos:station:WAVCIS:CSI16:2,2009-06-01T08:30:00Z,29.4012,-89.0355,1.0,31.725,11111222 
WAVCIS,ioos:station:WAVCIS:CSI16:2,2009-06-01T08:45:00Z,29.4012,-89.0355,1.0,31.514,11111222 
WAVCIS,ioos:station:WAVCIS:CSI16:2,2009-06-01T09:00:00Z,29.4012,-89.0355,1.0,31.56,11111222 
WAVCIS,ioos:station:WAVCIS:CSI16:2,2009-06-01T09:15:00Z,29.4012,-89.0355,1.0,31.608,11111222 
WAVCIS,ioos:station:WAVCIS:CSI16:2,2009-06-01T09:30:00Z,29.4012,-89.0355,1.0,31.764,11111222 
WAVCIS,ioos:station:WAVCIS:CSI16:2,2009-06-01T09:45:00Z,29.4012,-89.0355,1.0,31.9,11111222 
WAVCIS,ioos:station:WAVCIS:CSI16:2,2009-06-01T10:00:00Z,29.4012,-89.0355,1.0,31.102,11111222 
WAVCIS,ioos:station:WAVCIS:CSI16:2,2009-06-01T10:15:00Z,29.4012,-89.0355,1.0,31.296,11111222 
WAVCIS,ioos:station:WAVCIS:CSI16:2,2009-06-01T10:30:00Z,29.4012,-89.0355,1.0,32.199,11111222 
WAVCIS,ioos:station:WAVCIS:CSI16:2,2009-06-01T10:45:00Z,29.4012,-89.0355,1.0,31.883,11111222 
WAVCIS,ioos:station:WAVCIS:CSI16:2,2009-06-01T11:00:00Z,29.4012,-89.0355,1.0,32.212,11111222 
WAVCIS,ioos:station:WAVCIS:CSI16:2,2009-06-01T11:15:00Z,29.4012,-89.0355,1.0,31.826,11111222 
WAVCIS,ioos:station:WAVCIS:CSI16:2,2009-06-01T11:30:00Z,29.4012,-89.0355,1.0,32.185,11111222 
WAVCIS,ioos:station:WAVCIS:CSI16:2,2009-06-01T11:45:00Z,29.4012,-89.0355,1.0,32.132,11111222 
WAVCIS,ioos:station:WAVCIS:CSI16:2,2009-06-01T12:00:00Z,29.4012,-89.0355,1.0,31.019,11111222 
WAVCIS,ioos:station:WAVCIS:CSI16:2,2009-06-01T12:15:00Z,29.4012,-89.0355,1.0,32.183,11111222 
WAVCIS,ioos:station:WAVCIS:CSI16:2,2009-06-01T12:30:00Z,29.4012,-89.0355,1.0,30.081,11111222 
WAVCIS,ioos:station:WAVCIS:CSI16:2,2009-06-01T12:45:00Z,29.4012,-89.0355,1.0,32.158,11111222 
WAVCIS,ioos:station:WAVCIS:CSI16:2,2009-06-01T13:00:00Z,29.4012,-89.0355,1.0,30.985,11111222 
WAVCIS,ioos:station:WAVCIS:CSI16:2,2009-06-01T13:15:00Z,29.4012,-89.0355,1.0,31.118,11111222 
WAVCIS,ioos:station:WAVCIS:CSI16:2,2009-06-01T13:30:00Z,29.4012,-89.0355,1.0,31.035,11111222 
WAVCIS,ioos:station:WAVCIS:CSI16:2,2009-06-01T13:45:00Z,29.4012,-89.0355,1.0,30.695,11111222 
WAVCIS,ioos:station:WAVCIS:CSI16:2,2009-06-01T14:00:00Z,29.4012,-89.0355,1.0,30.82,11111222 
WAVCIS,ioos:station:WAVCIS:CSI16:2,2009-06-01T14:15:00Z,29.4012,-89.0355,1.0,31.331,11111222 
WAVCIS,ioos:station:WAVCIS:CSI16:2,2009-06-01T14:30:00Z,29.4012,-89.0355,1.0,31.213,11111222 
WAVCIS,ioos:station:WAVCIS:CSI16:2,2009-06-01T14:45:00Z,29.4012,-89.0355,1.0,31.798,11111222 
WAVCIS,ioos:station:WAVCIS:CSI16:2,2009-06-01T15:00:00Z,29.4012,-89.0355,1.0,31.907,11111222 
WAVCIS,ioos:station:WAVCIS:CSI16:2,2009-06-01T15:15:00Z,29.4012,-89.0355,1.0,32.183,11111222 
WAVCIS,ioos:station:WAVCIS:CSI16:2,2009-06-01T15:30:00Z,29.4012,-89.0355,1.0,31.908,11111222 
WAVCIS,ioos:station:WAVCIS:CSI16:2,2009-06-01T15:45:00Z,29.4012,-89.0355,1.0,32.149,11111222 
WAVCIS,ioos:station:WAVCIS:CSI16:2,2009-06-01T16:00:00Z,29.4012,-89.0355,1.0,31.793,11111222 
WAVCIS,ioos:station:WAVCIS:CSI16:2,2009-06-01T16:15:00Z,29.4012,-89.0355,1.0,31.793,11111222 
WAVCIS,ioos:station:WAVCIS:CSI16:2,2009-06-01T16:30:00Z,29.4012,-89.0355,1.0,31.591,11111222 
WAVCIS,ioos:station:WAVCIS:CSI16:2,2009-06-01T16:45:00Z,29.4012,-89.0355,1.0,31.644,11111222 
WAVCIS,ioos:station:WAVCIS:CSI16:2,2009-06-01T17:00:00Z,29.4012,-89.0355,1.0,31.575,11111222 
WAVCIS,ioos:station:WAVCIS:CSI16:2,2009-06-01T17:15:00Z,29.4012,-89.0355,1.0,31.436,11111222 
WAVCIS,ioos:station:WAVCIS:CSI16:2,2009-06-01T17:30:00Z,29.4012,-89.0355,1.0,29.761,11111222 
WAVCIS,ioos:station:WAVCIS:CSI16:2,2009-06-01T17:45:00Z,29.4012,-89.0355,1.0,30.771,11111222 
WAVCIS,ioos:station:WAVCIS:CSI16:2,2009-06-01T18:00:00Z,29.4012,-89.0355,1.0,30.956,11111222 
WAVCIS,ioos:station:WAVCIS:CSI16:2,2009-06-01T18:15:00Z,29.4012,-89.0355,1.0,30.88,11111222 
WAVCIS,ioos:station:WAVCIS:CSI16:2,2009-06-01T18:30:00Z,29.4012,-89.0355,1.0,30.956,11111222 
WAVCIS,ioos:station:WAVCIS:CSI16:2,2009-06-01T18:45:00Z,29.4012,-89.0355,1.0,31.15,11111222 
WAVCIS,ioos:station:WAVCIS:CSI16:2,2009-06-01T19:00:00Z,29.4012,-89.0355,1.0,31.266,11111222 
WAVCIS,ioos:station:WAVCIS:CSI16:2,2009-06-01T19:15:00Z,29.4012,-89.0355,1.0,30.955,11111222 
WAVCIS,ioos:station:WAVCIS:CSI16:2,2009-06-01T19:30:00Z,29.4012,-89.0355,1.0,31.771,11111222 
WAVCIS,ioos:station:WAVCIS:CSI16:2,2009-06-01T19:45:00Z,29.4012,-89.0355,1.0,31.246,11111222 
WAVCIS,ioos:station:WAVCIS:CSI16:2,2009-06-01T20:00:00Z,29.4012,-89.0355,1.0,30.729,11111222 
WAVCIS,ioos:station:WAVCIS:CSI16:2,2009-06-01T20:15:00Z,29.4012,-89.0355,1.0,30.425,11111222 
WAVCIS,ioos:station:WAVCIS:CSI16:2,2009-06-01T20:30:00Z,29.4012,-89.0355,1.0,30.606,11111222 
WAVCIS,ioos:station:WAVCIS:CSI16:2,2009-06-01T20:45:00Z,29.4012,-89.0355,1.0,30.508,11111222 
WAVCIS,ioos:station:WAVCIS:CSI16:2,2009-06-01T21:00:00Z,29.4012,-89.0355,1.0,30.134,11111222 
WAVCIS,ioos:station:WAVCIS:CSI16:2,2009-06-01T21:15:00Z,29.4012,-89.0355,1.0,30.348,11111222 
WAVCIS,ioos:station:WAVCIS:CSI16:2,2009-06-01T21:30:00Z,29.4012,-89.0355,1.0,29.893,11111222 
WAVCIS,ioos:station:WAVCIS:CSI16:2,2009-06-01T21:45:00Z,29.4012,-89.0355,1.0,30.265,11111222 
WAVCIS,ioos:station:WAVCIS:CSI16:2,2009-06-01T22:00:00Z,29.4012,-89.0355,1.0,30.128,11111222 
WAVCIS,ioos:station:WAVCIS:CSI16:2,2009-06-01T22:15:00Z,29.4012,-89.0355,1.0,29.755,11111222 
WAVCIS,ioos:station:WAVCIS:CSI16:2,2009-06-01T22:30:00Z,29.4012,-89.0355,1.0,28.371,11111222 
WAVCIS,ioos:station:WAVCIS:CSI16:2,2009-06-01T22:45:00Z,29.4012,-89.0355,1.0,29.718,11111222 
WAVCIS,ioos:station:WAVCIS:CSI16:2,2009-06-01T23:00:00Z,29.4012,-89.0355,1.0,29.061,11111222 
WAVCIS,ioos:station:WAVCIS:CSI16:2,2009-06-01T23:15:00Z,29.4012,-89.0355,1.0,29.279,11111222 
WAVCIS,ioos:station:WAVCIS:CSI16:2,2009-06-01T23:30:00Z,29.4012,-89.0355,1.0,29.054,11111222 
WAVCIS,ioos:station:WAVCIS:CSI16:2,2009-06-01T23:45:00Z,29.4012,-89.0355,1.0,28.998,11111222 
WAVCIS,ioos:station:WAVCIS:CSI16:2,2009-06-02T00:00:00Z,29.4012,-89.0355,1.0,28.708,11111222 
WAVCIS,ioos:station:WAVCIS:CSI16:2,2009-06-02T00:15:00Z,29.4012,-89.0355,1.0,28.367,11111222 
WAVCIS,ioos:station:WAVCIS:CSI16:2,2009-06-02T00:30:00Z,29.4012,-89.0355,1.0,27.736,11111222 
WAVCIS,ioos:station:WAVCIS:CSI16:2,2009-06-02T00:45:00Z,29.4012,-89.0355,1.0,27.58,11111222 
WAVCIS,ioos:station:WAVCIS:CSI16:2,2009-06-02T01:00:00Z,29.4012,-89.0355,1.0,27.807,11111222 
WAVCIS,ioos:station:WAVCIS:CSI16:2,2009-06-02T01:15:00Z,29.4012,-89.0355,1.0,27.817,11111222 
WAVCIS,ioos:station:WAVCIS:CSI16:2,2009-06-02T01:30:00Z,29.4012,-89.0355,1.0,27.889,11111222 
WAVCIS,ioos:station:WAVCIS:CSI16:2,2009-06-02T01:45:00Z,29.4012,-89.0355,1.0,28.019,11111222 
WAVCIS,ioos:station:WAVCIS:CSI16:2,2009-06-02T02:00:00Z,29.4012,-89.0355,1.0,27.932,11111222 
WAVCIS,ioos:station:WAVCIS:CSI16:2,2009-06-02T02:15:00Z,29.4012,-89.0355,1.0,27.8,11111222 
WAVCIS,ioos:station:WAVCIS:CSI16:2,2009-06-02T02:30:00Z,29.4012,-89.0355,1.0,27.985,11111222 
WAVCIS,ioos:station:WAVCIS:CSI16:2,2009-06-02T02:45:00Z,29.4012,-89.0355,1.0,27.795,11111222 
WAVCIS,ioos:station:WAVCIS:CSI16:2,2009-06-02T03:00:00Z,29.4012,-89.0355,1.0,28.197,11111222 
WAVCIS,ioos:station:WAVCIS:CSI16:2,2009-06-02T03:15:00Z,29.4012,-89.0355,1.0,28.013,11111222 
WAVCIS,ioos:station:WAVCIS:CSI16:2,2009-06-02T03:30:00Z,29.4012,-89.0355,1.0,28.088,11111222 
WAVCIS,ioos:station:WAVCIS:CSI16:2,2009-06-02T03:45:00Z,29.4012,-89.0355,1.0,28.035,11111222 
WAVCIS,ioos:station:WAVCIS:CSI16:2,2009-06-02T04:00:00Z,29.4012,-89.0355,1.0,28.07,11111222 
WAVCIS,ioos:station:WAVCIS:CSI16:2,2009-06-02T04:15:00Z,29.4012,-89.0355,1.0,28.442,11111222 
WAVCIS,ioos:station:WAVCIS:CSI16:2,2009-06-02T04:30:00Z,29.4012,-89.0355,1.0,28.455,11111222 
WAVCIS,ioos:station:WAVCIS:CSI16:2,2009-06-02T04:45:00Z,29.4012,-89.0355,1.0,29.45,11111222 
WAVCIS,ioos:station:WAVCIS:CSI16:2,2009-06-02T05:00:00Z,29.4012,-89.0355,1.0,29.343,11111222 
WAVCIS,ioos:station:WAVCIS:CSI16:2,2009-06-02T05:15:00Z,29.4012,-89.0355,1.0,30.929,11111222 
WAVCIS,ioos:station:WAVCIS:CSI16:2,2009-06-02T05:30:00Z,29.4012,-89.0355,1.0,31.536,11111222 
WAVCIS,ioos:station:WAVCIS:CSI16:2,2009-06-02T05:45:00Z,29.4012,-89.0355,1.0,32.208,11111222 
WAVCIS,ioos:station:WAVCIS:CSI16:2,2009-06-02T06:00:00Z,29.4012,-89.0355,1.0,32.297,11111222 
WAVCIS,ioos:station:WAVCIS:CSI16:2,2009-06-02T06:15:00Z,29.4012,-89.0355,1.0,31.351,11111222 
WAVCIS,ioos:station:WAVCIS:CSI16:2,2009-06-02T06:30:00Z,29.4012,-89.0355,1.0,32.417,11111222 
WAVCIS,ioos:station:WAVCIS:CSI16:2,2009-06-02T06:45:00Z,29.4012,-89.0355,1.0,32.364,11111222 
WAVCIS,ioos:station:WAVCIS:CSI16:2,2009-06-02T07:00:00Z,29.4012,-89.0355,1.0,33.21,11111222 
WAVCIS,ioos:station:WAVCIS:CSI16:2,2009-06-02T07:15:00Z,29.4012,-89.0355,1.0,33.384,11111222 
WAVCIS,ioos:station:WAVCIS:CSI16:2,2009-06-02T07:30:00Z,29.4012,-89.0355,1.0,33.466,11111222 
WAVCIS,ioos:station:WAVCIS:CSI16:2,2009-06-02T07:45:00Z,29.4012,-89.0355,1.0,33.571,11111222 
WAVCIS,ioos:station:WAVCIS:CSI16:2,2009-06-02T08:00:00Z,29.4012,-89.0355,1.0,33.607,11111222 
WAVCIS,ioos:station:WAVCIS:CSI16:2,2009-06-02T08:15:00Z,29.4012,-89.0355,1.0,33.475,11111222 
WAVCIS,ioos:station:WAVCIS:CSI16:2,2009-06-02T08:30:00Z,29.4012,-89.0355,1.0,33.683,11111222 
WAVCIS,ioos:station:WAVCIS:CSI16:2,2009-06-02T08:45:00Z,29.4012,-89.0355,1.0,33.28,11111222 
WAVCIS,ioos:station:WAVCIS:CSI16:2,2009-06-02T09:00:00Z,29.4012,-89.0355,1.0,33.638,11111222 
WAVCIS,ioos:station:WAVCIS:CSI16:2,2009-06-02T09:15:00Z,29.4012,-89.0355,1.0,32.757,11111222 
WAVCIS,ioos:station:WAVCIS:CSI16:2,2009-06-02T09:30:00Z,29.4012,-89.0355,1.0,32.748,11111222 
WAVCIS,ioos:station:WAVCIS:CSI16:2,2009-06-02T09:45:00Z,29.4012,-89.0355,1.0,33.364,11111222 
WAVCIS,ioos:station:WAVCIS:CSI16:2,2009-06-02T10:00:00Z,29.4012,-89.0355,1.0,33.598,11111222 
WAVCIS,ioos:station:WAVCIS:CSI16:2,2009-06-02T10:15:00Z,29.4012,-89.0355,1.0,32.716,11111222 
WAVCIS,ioos:station:WAVCIS:CSI16:2,2009-06-02T10:30:00Z,29.4012,-89.0355,1.0,33.696,11111222 
WAVCIS,ioos:station:WAVCIS:CSI16:2,2009-06-02T10:45:00Z,29.4012,-89.0355,1.0,33.945,11111222 
WAVCIS,ioos:station:WAVCIS:CSI16:2,2009-06-02T11:00:00Z,29.4012,-89.0355,1.0,33.723,11111222 
WAVCIS,ioos:station:WAVCIS:CSI16:2,2009-06-02T11:15:00Z,29.4012,-89.0355,1.0,33.98,11111222 
WAVCIS,ioos:station:WAVCIS:CSI16:2,2009-06-02T11:30:00Z,29.4012,-89.0355,1.0,33.264,11111222 
WAVCIS,ioos:station:WAVCIS:CSI16:2,2009-06-02T11:45:00Z,29.4012,-89.0355,1.0,33.597,11111222 
WAVCIS,ioos:station:WAVCIS:CSI16:2,2009-06-02T12:00:00Z,29.4012,-89.0355,1.0,33.783,11111222 
WAVCIS,ioos:station:WAVCIS:CSI16:2,2009-06-02T12:15:00Z,29.4012,-89.0355,1.0,33.382,11111222 
WAVCIS,ioos:station:WAVCIS:CSI16:2,2009-06-02T12:30:00Z,29.4012,-89.0355,1.0,33.516,11111222 
WAVCIS,ioos:station:WAVCIS:CSI16:2,2009-06-02T12:45:00Z,29.4012,-89.0355,1.0,33.609,11111222 
WAVCIS,ioos:station:WAVCIS:CSI16:2,2009-06-02T13:00:00Z,29.4012,-89.0355,1.0,33.225,11111222 
WAVCIS,ioos:station:WAVCIS:CSI16:2,2009-06-02T13:15:00Z,29.4012,-89.0355,1.0,33.262,11111222 
WAVCIS,ioos:station:WAVCIS:CSI16:2,2009-06-02T13:30:00Z,29.4012,-89.0355,1.0,33.329,11111222 
WAVCIS,ioos:station:WAVCIS:CSI16:2,2009-06-02T13:45:00Z,29.4012,-89.0355,1.0,33.191,11111222 
WAVCIS,ioos:station:WAVCIS:CSI16:2,2009-06-02T14:00:00Z,29.4012,-89.0355,1.0,33.206,11111222 
WAVCIS,ioos:station:WAVCIS:CSI16:2,2009-06-02T14:15:00Z,29.4012,-89.0355,1.0,33.106,11111222 
WAVCIS,ioos:station:WAVCIS:CSI16:2,2009-06-02T14:30:00Z,29.4012,-89.0355,1.0,33.094,11111222 
WAVCIS,ioos:station:WAVCIS:CSI16:2,2009-06-02T14:45:00Z,29.4012,-89.0355,1.0,33.109,11111222 
WAVCIS,ioos:station:WAVCIS:CSI16:2,2009-06-02T15:00:00Z,29.4012,-89.0355,1.0,33.028,11111222 
WAVCIS,ioos:station:WAVCIS:CSI16:2,2009-06-02T15:15:00Z,29.4012,-89.0355,1.0,33.003,11111222 
WAVCIS,ioos:station:WAVCIS:CSI16:2,2009-06-02T15:30:00Z,29.4012,-89.0355,1.0,33.02,11111222 
WAVCIS,ioos:station:WAVCIS:CSI16:2,2009-06-02T15:45:00Z,29.4012,-89.0355,1.0,32.886,11111222 
WAVCIS,ioos:station:WAVCIS:CSI16:2,2009-06-02T16:00:00Z,29.4012,-89.0355,1.0,32.869,11111222 
WAVCIS,ioos:station:WAVCIS:CSI16:2,2009-06-02T16:15:00Z,29.4012,-89.0355,1.0,32.821,11111222 
WAVCIS,ioos:station:WAVCIS:CSI16:2,2009-06-02T16:30:00Z,29.4012,-89.0355,1.0,32.837,11111222 
WAVCIS,ioos:station:WAVCIS:CSI16:2,2009-06-02T16:45:00Z,29.4012,-89.0355,1.0,32.662,11111222 
WAVCIS,ioos:station:WAVCIS:CSI16:2,2009-06-02T17:00:00Z,29.4012,-89.0355,1.0,32.539,11111222 
WAVCIS,ioos:station:WAVCIS:CSI16:2,2009-06-02T17:15:00Z,29.4012,-89.0355,1.0,32.307,11111222 
WAVCIS,ioos:station:WAVCIS:CSI16:2,2009-06-02T17:30:00Z,29.4012,-89.0355,1.0,32.309,11111222 
WAVCIS,ioos:station:WAVCIS:CSI16:2,2009-06-02T17:45:00Z,29.4012,-89.0355,1.0,32.298,11111222 
WAVCIS,ioos:station:WAVCIS:CSI16:2,2009-06-02T18:00:00Z,29.4012,-89.0355,1.0,32.21,11111222 
WAVCIS,ioos:station:WAVCIS:CSI16:2,2009-06-02T18:15:00Z,29.4012,-89.0355,1.0,32.153,11111222 
WAVCIS,ioos:station:WAVCIS:CSI16:2,2009-06-02T18:30:00Z,29.4012,-89.0355,1.0,32.027,11111222 
WAVCIS,ioos:station:WAVCIS:CSI16:2,2009-06-02T18:45:00Z,29.4012,-89.0355,1.0,31.753,11111222 
WAVCIS,ioos:station:WAVCIS:CSI16:2,2009-06-02T19:00:00Z,29.4012,-89.0355,1.0,31.533,11111222 
WAVCIS,ioos:station:WAVCIS:CSI16:2,2009-06-02T19:15:00Z,29.4012,-89.0355,1.0,31.563,11111222 
WAVCIS,ioos:station:WAVCIS:CSI16:2,2009-06-02T19:30:00Z,29.4012,-89.0355,1.0,31.112,11111222 
WAVCIS,ioos:station:WAVCIS:CSI16:2,2009-06-02T19:45:00Z,29.4012,-89.0355,1.0,30.918,11111222 
WAVCIS,ioos:station:WAVCIS:CSI16:2,2009-06-02T20:00:00Z,29.4012,-89.0355,1.0,30.843,11111222 
WAVCIS,ioos:station:WAVCIS:CSI16:2,2009-06-02T20:15:00Z,29.4012,-89.0355,1.0,30.749,11111222 
WAVCIS,ioos:station:WAVCIS:CSI16:2,2009-06-02T20:30:00Z,29.4012,-89.0355,1.0,30.559,11111222 
WAVCIS,ioos:station:WAVCIS:CSI16:2,2009-06-02T20:45:00Z,29.4012,-89.0355,1.0,30.59,11111222 
WAVCIS,ioos:station:WAVCIS:CSI16:2,2009-06-02T21:00:00Z,29.4012,-89.0355,1.0,30.507,11111222 
WAVCIS,ioos:station:WAVCIS:CSI16:2,2009-06-02T21:15:00Z,29.4012,-89.0355,1.0,30.454,11111222 
WAVCIS,ioos:station:WAVCIS:CSI16:2,2009-06-02T21:30:00Z,29.4012,-89.0355,1.0,30.218,11111222 
WAVCIS,ioos:station:WAVCIS:CSI16:2,2009-06-02T21:45:00Z,29.4012,-89.0355,1.0,30.02,11111222 
WAVCIS,ioos:station:WAVCIS:CSI16:2,2009-06-02T22:00:00Z,29.4012,-89.0355,1.0,29.957,11111222 
WAVCIS,ioos:station:WAVCIS:CSI16:2,2009-06-02T22:15:00Z,29.4012,-89.0355,1.0,29.336,11111222 
WAVCIS,ioos:station:WAVCIS:CSI16:2,2009-06-02T22:30:00Z,29.4012,-89.0355,1.0,28.733,11111222 
WAVCIS,ioos:station:WAVCIS:CSI16:2,2009-06-02T22:45:00Z,29.4012,-89.0355,1.0,28.971,11111222 
WAVCIS,ioos:station:WAVCIS:CSI16:2,2009-06-02T23:00:00Z,29.4012,-89.0355,1.0,28.456,11111222 
WAVCIS,ioos:station:WAVCIS:CSI16:2,2009-06-02T23:15:00Z,29.4012,-89.0355,1.0,29.232,11111222 
WAVCIS,ioos:station:WAVCIS:CSI16:2,2009-06-02T23:30:00Z,29.4012,-89.0355,1.0,28.449,11111222 
WAVCIS,ioos:station:WAVCIS:CSI16:2,2009-06-02T23:45:00Z,29.4012,-89.0355,1.0,28.925,11111222 
WAVCIS,ioos:station:WAVCIS:CSI16:2,2009-06-03T00:00:00Z,29.4012,-89.0355,1.0,29.028,11111222 
WAVCIS,ioos:station:WAVCIS:CSI16:2,2009-06-03T00:15:00Z,29.4012,-89.0355,1.0,29.015,11111222 
WAVCIS,ioos:station:WAVCIS:CSI16:2,2009-06-03T00:30:00Z,29.4012,-89.0355,1.0,30.457,11111222 
WAVCIS,ioos:station:WAVCIS:CSI16:2,2009-06-03T00:45:00Z,29.4012,-89.0355,1.0,31.491,11111222 
WAVCIS,ioos:station:WAVCIS:CSI16:2,2009-06-03T01:00:00Z,29.4012,-89.0355,1.0,31.037,11111222 
WAVCIS,ioos:station:WAVCIS:CSI16:2,2009-06-03T01:15:00Z,29.4012,-89.0355,1.0,30.891,11111222 
WAVCIS,ioos:station:WAVCIS:CSI16:2,2009-06-03T01:30:00Z,29.4012,-89.0355,1.0,30.76,11111222 
WAVCIS,ioos:station:WAVCIS:CSI16:2,2009-06-03T01:45:00Z,29.4012,-89.0355,1.0,30.445,11111222 
WAVCIS,ioos:station:WAVCIS:CSI16:2,2009-06-03T02:00:00Z,29.4012,-89.0355,1.0,31.176,11111222 
WAVCIS,ioos:station:WAVCIS:CSI16:2,2009-06-03T02:15:00Z,29.4012,-89.0355,1.0,31.176,11111222 
WAVCIS,ioos:station:WAVCIS:CSI16:2,2009-06-03T02:30:00Z,29.4012,-89.0355,1.0,31.052,11111222 
WAVCIS,ioos:station:WAVCIS:CSI16:2,2009-06-03T02:45:00Z,29.4012,-89.0355,1.0,30.949,11111222 
WAVCIS,ioos:station:WAVCIS:CSI16:2,2009-06-03T03:00:00Z,29.4012,-89.0355,1.0,30.308,11111222 
WAVCIS,ioos:station:WAVCIS:CSI16:2,2009-06-03T03:15:00Z,29.4012,-89.0355,1.0,29.756,11111222 
WAVCIS,ioos:station:WAVCIS:CSI16:2,2009-06-03T03:30:00Z,29.4012,-89.0355,1.0,30.556,11111222 
WAVCIS,ioos:station:WAVCIS:CSI16:2,2009-06-03T03:45:00Z,29.4012,-89.0355,1.0,29.591,11111222 
WAVCIS,ioos:station:WAVCIS:CSI16:2,2009-06-03T04:00:00Z,29.4012,-89.0355,1.0,29.219,11111222 
WAVCIS,ioos:station:WAVCIS:CSI16:2,2009-06-03T04:15:00Z,29.4012,-89.0355,1.0,28.988,11111222 
WAVCIS,ioos:station:WAVCIS:CSI16:2,2009-06-03T04:30:00Z,29.4012,-89.0355,1.0,28.835,11111222 
WAVCIS,ioos:station:WAVCIS:CSI16:2,2009-06-03T04:45:00Z,29.4012,-89.0355,1.0,28.851,11111222 
WAVCIS,ioos:station:WAVCIS:CSI16:2,2009-06-03T05:00:00Z,29.4012,-89.0355,1.0,28.747,11111222 
WAVCIS,ioos:station:WAVCIS:CSI16:2,2009-06-03T05:15:00Z,29.4012,-89.0355,1.0,28.935,11111222 
WAVCIS,ioos:station:WAVCIS:CSI16:2,2009-06-03T05:30:00Z,29.4012,-89.0355,1.0,28.618,11111222 
WAVCIS,ioos:station:WAVCIS:CSI16:2,2009-06-03T05:45:00Z,29.4012,-89.0355,1.0,28.666,11111222 
WAVCIS,ioos:station:WAVCIS:CSI16:2,2009-06-03T06:00:00Z,29.4012,-89.0355,1.0,29.277,11111222 
WAVCIS,ioos:station:WAVCIS:CSI16:2,2009-06-03T06:15:00Z,29.4012,-89.0355,1.0,31.902,11111222 
WAVCIS,ioos:station:WAVCIS:CSI16:2,2009-06-03T06:30:00Z,29.4012,-89.0355,1.0,32.353,11111222 
WAVCIS,ioos:station:WAVCIS:CSI16:2,2009-06-03T06:45:00Z,29.4012,-89.0355,1.0,32.578,11111222 
WAVCIS,ioos:station:WAVCIS:CSI16:2,2009-06-03T07:00:00Z,29.4012,-89.0355,1.0,32.764,11111222 
WAVCIS,ioos:station:WAVCIS:CSI16:2,2009-06-03T07:15:00Z,29.4012,-89.0355,1.0,32.698,11111222 
WAVCIS,ioos:station:WAVCIS:CSI16:2,2009-06-03T07:30:00Z,29.4012,-89.0355,1.0,32.681,11111222 
WAVCIS,ioos:station:WAVCIS:CSI16:2,2009-06-03T07:45:00Z,29.4012,-89.0355,1.0,32.831,11111222 
WAVCIS,ioos:station:WAVCIS:CSI16:2,2009-06-03T08:00:00Z,29.4012,-89.0355,1.0,32.807,11111222 
WAVCIS,ioos:station:WAVCIS:CSI16:2,2009-06-03T08:15:00Z,29.4012,-89.0355,1.0,32.662,11111222 
WAVCIS,ioos:station:WAVCIS:CSI16:2,2009-06-03T08:30:00Z,29.4012,-89.0355,1.0,32.782,11111222 
WAVCIS,ioos:station:WAVCIS:CSI16:2,2009-06-03T08:45:00Z,29.4012,-89.0355,1.0,32.889,11111222 
WAVCIS,ioos:station:WAVCIS:CSI16:2,2009-06-03T09:00:00Z,29.4012,-89.0355,1.0,32.939,11111222 
WAVCIS,ioos:station:WAVCIS:CSI16:2,2009-06-03T09:15:00Z,29.4012,-89.0355,1.0,33.09,11111222 
WAVCIS,ioos:station:WAVCIS:CSI16:2,2009-06-03T09:30:00Z,29.4012,-89.0355,1.0,33.173,11111222 
WAVCIS,ioos:station:WAVCIS:CSI16:2,2009-06-03T09:45:00Z,29.4012,-89.0355,1.0,33.248,11111222 
WAVCIS,ioos:station:WAVCIS:CSI16:2,2009-06-03T10:00:00Z,29.4012,-89.0355,1.0,33.307,11111222 
WAVCIS,ioos:station:WAVCIS:CSI16:2,2009-06-03T10:15:00Z,29.4012,-89.0355,1.0,33.375,11111222 
WAVCIS,ioos:station:WAVCIS:CSI16:2,2009-06-03T10:30:00Z,29.4012,-89.0355,1.0,33.548,11111222 
WAVCIS,ioos:station:WAVCIS:CSI16:2,2009-06-03T10:45:00Z,29.4012,-89.0355,1.0,33.567,11111222 
WAVCIS,ioos:station:WAVCIS:CSI16:2,2009-06-03T11:00:00Z,29.4012,-89.0355,1.0,33.626,11111222 
WAVCIS,ioos:station:WAVCIS:CSI16:2,2009-06-03T11:15:00Z,29.4012,-89.0355,1.0,33.619,11111222 
WAVCIS,ioos:station:WAVCIS:CSI16:2,2009-06-03T11:30:00Z,29.4012,-89.0355,1.0,33.679,11111222 
WAVCIS,ioos:station:WAVCIS:CSI16:2,2009-06-03T11:45:00Z,29.4012,-89.0355,1.0,33.71,11111222 
WAVCIS,ioos:station:WAVCIS:CSI16:2,2009-06-03T12:00:00Z,29.4012,-89.0355,1.0,33.744,11111222 
WAVCIS,ioos:station:WAVCIS:CSI16:2,2009-06-03T12:15:00Z,29.4012,-89.0355,1.0,33.72,11111222 
WAVCIS,ioos:station:WAVCIS:CSI16:2,2009-06-03T12:30:00Z,29.4012,-89.0355,1.0,33.682,11111222 
WAVCIS,ioos:station:WAVCIS:CSI16:2,2009-06-03T12:45:00Z,29.4012,-89.0355,1.0,33.676,11111222 
WAVCIS,ioos:station:WAVCIS:CSI16:2,2009-06-03T13:00:00Z,29.4012,-89.0355,1.0,33.666,11111222 
WAVCIS,ioos:station:WAVCIS:CSI16:2,2009-06-03T13:15:00Z,29.4012,-89.0355,1.0,33.631,11111222 
WAVCIS,ioos:station:WAVCIS:CSI16:2,2009-06-03T13:30:00Z,29.4012,-89.0355,1.0,33.686,11111222 
WAVCIS,ioos:station:WAVCIS:CSI16:2,2009-06-03T13:45:00Z,29.4012,-89.0355,1.0,33.705,11111222 
WAVCIS,ioos:station:WAVCIS:CSI16:2,2009-06-03T14:00:00Z,29.4012,-89.0355,1.0,33.668,11111222 
WAVCIS,ioos:station:WAVCIS:CSI16:2,2009-06-03T14:15:00Z,29.4012,-89.0355,1.0,33.65,11111222 
WAVCIS,ioos:station:WAVCIS:CSI16:2,2009-06-03T14:30:00Z,29.4012,-89.0355,1.0,33.77,11111222 
WAVCIS,ioos:station:WAVCIS:CSI16:2,2009-06-03T14:45:00Z,29.4012,-89.0355,1.0,33.676,11111222 
WAVCIS,ioos:station:WAVCIS:CSI16:2,2009-06-03T15:00:00Z,29.4012,-89.0355,1.0,33.625,11111222 
WAVCIS,ioos:station:WAVCIS:CSI16:2,2009-06-03T15:15:00Z,29.4012,-89.0355,1.0,33.628,11111222 